2018-004AL (43151 NORAD) Tracking and Keplerian Element Data

This shows tracking and keplerian element data for the satellite.

Feedback or suggestion? Click here.




ElementValue
Catalog43151
Name2018-004AL
Epoch Orbit58
Epoch Day16.2163224
Epoch Year2018
RAAN78.4159
Inclination97.4231
Eccentricity0.0010055
Argument of Perigee246.8759
Mean Anonmoly113.1418
Mean Motion15.21603359
Decay Rate1.293E-05
L11 43151U 18004AL 18016.21632240 .00001293 00000-0 60342-4 0 9997
L22 43151 97.4231 78.4159 0010055 246.8759 113.1418 15.21603359 585



Live tracking and technical data element details for 2018-004AL (NORAD 43151). 2018-004AL can be tracked NOW for your location showing map with azimuth and elevation plus other details from your city location.







IsCatalogInMostPopularTable: catalog: 43151, numindb: 557
Update: records affected: 1



GetName: 43151 2018-004AL

Hit Count: updated at: Fri, 16 May 2025 11:08:39 GMT